ATLAS CENTAUR 2 1 00694U 63047A 26037.36886599 .00001718 00000+0 19738-3 0 9998 2 00694 30.3556 10.6655 0548105 164.2980 197.5371 14.11980569127196 THOR AGENA D R/B 1 00733U 64002A 26037.61240186 .00000341 00000+0 13897-3 0 9999 2 00733 99.1229 49.2576 0032732 350.7528 9.3048 14.34000646233849 SL-3 R/B 1 00877U 64053B 26037.07496367 .00000471 00000+0 11546-3 0 9991 2 00877 65.0763 63.9220 0078157 302.2599 57.0943 14.61334532262179 SL-8 R/B 1 02802U 67045B 26037.43373297 .00000383 00000+0 11348-3 0 9993 2 02802 74.0100 46.4592 0063001 60.6707 300.0725 14.45592060 84502 SL-8 R/B 1 03230U 68040B 26037.36173423 .00005517 00000+0 40978-3 0 9991 2 03230 74.0326 17.6907 0025481 210.7368 149.2330 15.03017923 85308 OAO 2 1 03597U 68110A 26037.18654005 .00000401 00000+0 11313-3 0 9993 2 03597 34.9935 81.1080 0006018 302.2637 57.7470 14.47288338 14536 ISIS 1 1 03669U 69009A 26037.29746010 .00000453 00000+0 31082-3 0 9993 2 03669 88.4554 158.7291 1707838 152.5019 217.7992 11.30400528344989 SERT 2 1 04327U 70009A 26037.27598498 .00000046 00000+0 11954-3 0 9994 2 04327 99.2721 342.0956 0004022 242.0948 278.4609 13.58726533775620 SL-3 R/B 1 05118U 71028B 26037.60698344 .00035327 00000+0 45477-3 0 9990 2 05118 81.2351 90.3519 0017598 43.9650 316.2998 15.58685550983827 ASTEX 1 1 05560U 71089A 26037.23194815 .00000847 00000+0 21546-3 0 9991 2 05560 92.7153 141.5818 0015437 182.6748 177.4379 14.50731917857746 SL-8 R/B 1 05730U 71119B 26037.61463634 .00012437 00000+0 64549-3 0 9992 2 05730 73.8853 233.7648 0554049 206.7721 150.3835 14.36912669651022 OAO 3 (COPERNICUS) 1 06153U 72065A 26037.27426090 .00000579 00000+0 12318-3 0 9991 2 06153 35.0054 116.2956 0007251 264.9979 137.3252 14.59969687841601 ATLAS CENTAUR R/B 1 06155U 72065B 26037.27414771 .00001874 00000+0 25897-3 0 9991 2 06155 35.0009 129.8446 0033096 105.9504 254.4847 14.77594325836610 SL-8 R/B 1 08459U 75112B 26037.54899486 .00000261 00000+0 94589-4 0 9990 2 08459 74.0593 76.2013 0015523 180.1307 179.9846 14.38188176627399 SL-3 R/B 1 10114U 77057B 26037.56651118 .00015897 00000+0 34327-3 0 9995 2 10114 97.5733 208.1483 0008146 41.9941 318.1930 15.44588009663527 SEASAT 1 1 10967U 78064A 26037.64503623 .00000457 00000+0 16608-3 0 9994 2 10967 108.0164 60.3480 0001519 292.0930 68.0054 14.46134736502028 SL-14 R/B 1 11267U 79011B 26037.19130018 .00000887 00000+0 85105-4 0 9991 2 11267 82.5258 126.4569 0016607 157.9505 202.2433 14.91868832524089 SL-8 R/B 1 11574U 79089B 26037.60294112 .00000410 00000+0 13193-3 0 9998 2 11574 74.0697 148.5859 0016468 325.2368 34.7711 14.42330905431627 SL-14 R/B 1 11672U 80005B 26037.25075185 .00000991 00000+0 97919-4 0 9998 2 11672 82.5174 337.0487 0014117 268.6559 91.3043 14.90887742471803 SL-8 R/B 1 12139U 81003B 26037.19970743 .00024228 00000+0 64280-3 0 9996 2 12139 82.9395 319.1150 0263737 288.6689 68.6078 15.09823601309922 SL-3 R/B 1 12465U 81046B 26037.43266862 .00015440 00000+0 36930-3 0 9999 2 12465 81.2346 327.2438 0020597 124.4221 235.8972 15.41115767433613 SL-3 R/B 1 12904U 81103B 26037.65884942 .00007301 00000+0 32735-3 0 9996 2 12904 81.1561 249.8300 0013846 33.4991 326.7113 15.21000280968518 SL-3 R/B 1 13068U 82013B 26037.61452062 .00005918 00000+0 25902-3 0 9999 2 13068 81.1741 197.1776 0021797 285.3393 74.5430 15.21668537399625 SL-3 R/B 1 13154U 82039B 26037.64438215 .00003169 00000+0 19209-3 0 9999 2 13154 81.1615 251.7452 0030077 66.0224 294.4146 15.09909127376954 SL-3 R/B 1 13403U 82079B 26037.62217007 .00006928 00000+0 27983-3 0 9996 2 13403 81.1439 229.7508 0024091 271.8278 88.0196 15.24346456372962 SL-14 R/B 1 13553U 82092B 26037.33992568 .00000786 00000+0 85438-4 0 9993 2 13553 82.5700 170.7126 0021465 48.2715 341.8204 14.86631016324276 SL-3 R/B 1 13819U 83010B 26037.42995707 .00018171 00000+0 37891-3 0 9993 2 13819 81.1023 40.5407 0017793 150.6944 209.5302 15.45254078353110 SL-3 R/B 1 14208U 83075B 26037.58778882 .00014338 00000+0 38756-3 0 9999 2 14208 97.6133 41.0122 0021398 346.6401 13.4273 15.37611520325374 COSMOS 1536 1 14699U 84013A 26036.99848499 .00009353 00000+0 39052-3 0 9993 2 14699 82.5476 139.3348 0015065 38.6998 321.5315 15.23402379267791 SL-14 R/B 1 14820U 84027B 26037.65026715 .00000595 00000+0 65209-4 0 9990 2 14820 82.5401 274.1303 0019507 77.3185 283.0211 14.85946111243028 SL-8 R/B 1 15483U 85006B 26037.29441528 .00000355 00000+0 12629-3 0 9998 2 15483 74.0475 318.9174 0019568 242.7173 266.4442 14.37767400149515 SL-12 R/B(2) 1 15772U 85042D 26037.60727546 .00000149 00000+0 88317-4 0 9990 2 15772 71.1086 153.3955 0035067 177.8203 274.0786 14.21973356109978 SL-14 R/B 1 15945U 85069B 26037.50980500 .00000677 00000+0 73840-4 0 9992 2 15945 82.5240 54.2591 0017378 298.1865 61.7596 14.86396311168201 SL-16 R/B 1 16182U 85097B 26037.63702849 .00000017 00000+0 32610-4 0 9997 2 16182 71.0014 205.9241 0009517 296.0711 137.8476 14.16596311 82838 SL-14 R/B 1 16496U 86006B 26037.15855216 .00000999 00000+0 10343-3 0 9997 2 16496 82.5271 289.4148 0077164 18.3588 342.0385 14.86771380144523 COSMOS 1743 1 16719U 86034A 26037.60800245 .00037923 00000+0 53690-3 0 9997 2 16719 82.5331 106.3919 0005189 58.1202 302.0557 15.56307669175416 SL-14 R/B 1 16792U 86046B 26037.62167672 .00000625 00000+0 69230-4 0 9990 2 16792 82.4819 109.5409 0022377 334.2035 25.8063 14.85560310121795 SL-14 R/B 1 16882U 86055B 26037.34168664 .00000780 00000+0 87060-4 0 9994 2 16882 82.5231 156.1286 0020376 77.1317 305.6985 14.85609259114710 AJISAI (EGS) 1 16908U 86061A 26037.64113399 -.00000099 00000+0 -11321-4 0 9990 2 16908 50.0069 188.8215 0011241 207.0488 242.1384 12.44515317464132 COSMOS 1812 1 17295U 87003A 26037.60604711 .00290131 30821-4 79768-3 0 9999 2 17295 82.4778 230.8355 0000982 328.0552 32.0663 15.93911617139491 SL-14 R/B 1 17567U 87024B 26037.59907700 .00000654 00000+0 71753-4 0 9993 2 17567 82.5294 121.9840 0018374 8.6594 351.4936 14.86102190 83518 COSMOS 1833 1 17589U 87027A 26037.42973090 .00000073 00000+0 64882-4 0 9997 2 17589 70.9210 31.7158 0024868 256.3065 103.5287 14.13055988 5905 SL-16 R/B 1 17590U 87027B 26037.28216595 -.00000101 00000+0 -26086-4 0 9991 2 17590 71.0050 342.6762 0005223 196.6499 163.4454 14.17163842 10895 SL-14 R/B 1 17912U 87038B 26037.24118671 .00000752 00000+0 84488-4 0 9993 2 17912 82.5044 326.4257 0017681 268.8606 91.0585 14.85337798 74568 COSMOS 1844 1 17973U 87041A 26037.56868193 .00000357 00000+0 21018-3 0 9990 2 17973 70.8981 99.8215 0028816 67.9526 292.4652 14.14538728999185 SL-14 R/B 1 18153U 87055B 26037.35829771 .00000750 00000+0 83564-4 0 9994 2 18153 82.4993 18.5565 0022121 115.2671 245.0841 14.85590437 65287 COSMOS 1867 1 18187U 87060A 26037.00351258 -.00000018 00000+0 30771-4 0 9999 2 18187 65.0107 35.4392 0014084 276.2768 83.6712 14.31497768 15404 SL-14 R/B 1 18749U 88001B 26037.62089114 .00000633 00000+0 70444-4 0 9999 2 18749 82.5105 224.5832 0017668 345.9404 14.1318 14.85490639 37417 COSMOS 1933 1 18958U 88020A 26037.54163427 .00005591 00000+0 27584-3 0 9997 2 18958 82.5122 281.7286 0003300 329.8139 30.2904 15.17716216 45507 SL-3 R/B 1 19046U 88032B 26037.58823534 .00007457 00000+0 35144-3 0 9999 2 19046 97.5152 20.9706 0025734 346.9466 13.1099 15.19502153 47381 SL-16 R/B 1 19120U 88039B 26037.62438038 -.00000077 00000+0 -13518-4 0 9990 2 19120 71.0150 134.2376 0020853 21.8415 338.3594 14.19611664953971 COSMOS 1953 1 19210U 88050A 26037.39244317 .00012386 00000+0 45310-3 0 9990 2 19210 82.5092 189.7019 0010518 231.5715 128.4581 15.27883581 33008 SL-8 R/B 1 19257U 88053B 26037.65589463 .00000341 00000+0 11906-3 0 9999 2 19257 74.0477 169.6633 0020308 354.8150 106.0663 14.38896878972134 COSMOS 1975 1 19573U 88093A 26037.28673374 .00010150 00000+0 37544-3 0 9993 2 19573 82.5225 149.1850 0010375 281.9908 78.0168 15.27509889 14618 SL-14 R/B 1 19574U 88093B 26037.62419628 .00000569 00000+0 62597-4 0 9992 2 19574 82.5282 71.2148 0021767 137.8042 345.3903 14.85621912996422 SL-16 R/B 1 19650U 88102B 26037.61361246 .00000097 00000+0 73165-4 0 9998 2 19650 70.9970 216.8800 0012345 52.9971 307.2280 14.16146329922493 INTERCOSMOS 24 1 20261U 89080A 26037.19033587 .00000709 00000+0 20511-3 0 9997 2 20261 82.6070 124.9056 1188199 5.9628 355.4261 12.59515321662835 SL-14 R/B 1 20262U 89080C 26037.42898560 .00000488 00000+0 14807-3 0 9999 2 20262 82.5941 193.2545 1229437 256.2390 89.9190 12.50456357656244 DELTA 1 R/B 1 20323U 89089B 26037.58123641 .00000521 00000+0 13773-3 0 9993 2 20323 97.0727 249.9630 0068098 220.1315 139.4843 14.50636713891222 ARIANE 40 R/B 1 20443U 90005H 26037.61181038 .00000374 00000+0 13262-3 0 9993 2 20443 98.3151 99.1886 0008995 301.5058 58.5251 14.39849495888338 DELTA 2 R/B(1) 1 20453U 90008B 26037.08186883 .00077268 00000+0 10279-2 0 9991 2 20453 35.6065 21.5888 0095851 324.0484 35.3829 15.51612423921211 COSMOS 2058 1 20465U 90010A 26037.59301821 .00005145 00000+0 30569-3 0 9994 2 20465 82.4634 78.0623 0012073 83.6310 276.6295 15.11034029937547 SL-14 R/B 1 20466U 90010B 26037.66121131 .00000650 00000+0 75753-4 0 9998 2 20466 82.5031 296.5350 0020958 45.2780 315.0137 14.83541578923885 SL-14 R/B 1 20511U 90018B 26037.64907453 .00000532 00000+0 63811-4 0 9995 2 20511 82.5184 252.1098 0016049 189.3394 170.7524 14.82112727917988 HST 1 20580U 90037B 26036.89949414 .00009561 00000+0 32208-3 0 9997 2 20580 28.4665 256.7833 0001910 115.5134 244.5659 15.28971962768447 SL-16 R/B 1 20625U 90046B 26037.31002610 .00000082 00000+0 66868-4 0 9992 2 20625 70.9999 3.8134 0014581 343.2232 16.8406 14.15005288843955 COSMOS 2084 1 20663U 90055A 26037.50496118 .00003519 00000+0 25653-3 0 9999 2 20663 62.7897 81.9221 0022026 183.5474 176.5474 15.05449161931626 SL-6 R/B(2) 1 20666U 90055D 26036.97986805 .00004021 00000+0 30727-3 0 9996 2 20666 62.7852 1.6695 0020032 337.8166 22.2064 15.03423586933424 SL-8 R/B 1 20775U 90078B 26037.65358790 .00018664 00000+0 55071-3 0 9991 2 20775 82.9020 279.1988 0367273 117.9812 245.9086 14.88035941804688 SL-8 R/B 1 21088U 91006B 26037.53691723 .00000014 00000+0 -16830-5 0 9997 2 21088 82.9427 193.2071 0023558 121.1768 305.3564 13.77491937759788 OKEAN-3 1 21397U 91039A 26037.35698847 .00004685 00000+0 33134-3 0 9991 2 21397 82.5183 7.1883 0016467 79.4474 280.8607 15.04555101860324 COSMOS 2151 1 21422U 91042A 26037.59807823 .00002582 00000+0 20530-3 0 9996 2 21422 82.4965 113.6674 0013131 158.2567 201.9217 14.99984051858539 SL-14 R/B 1 21423U 91042B 26037.62805232 .00000501 00000+0 60392-4 0 9993 2 21423 82.4900 249.3169 0016725 348.3314 11.7510 14.81799931848476 ERS-1 1 21574U 91050A 26037.62568436 .00000466 00000+0 16376-3 0 9993 2 21574 98.7896 55.0791 0030959 295.2900 64.5080 14.39423614811266 ARIANE 40 R/B 1 21610U 91050F 26037.61179552 .00000424 00000+0 13942-3 0 9990 2 21610 98.2078 91.0046 0003694 150.4286 209.7114 14.42870320814518 INTERCOSMOS 25 1 21819U 91086A 26037.20133260 .00001072 00000+0 20776-3 0 9994 2 21819 82.6087 329.0361 1486652 184.7696 173.7737 12.11913022492878 SL-8 R/B 1 21876U 92008B 26037.67142335 .00000065 00000+0 51181-4 0 9992 2 21876 82.9267 290.8532 0033725 219.8485 200.1985 13.75969535705152 SL-8 R/B 1 21938U 92020B 26036.99366729 .00000137 00000+0 12653-3 0 9994 2 21938 82.9325 177.2878 0029471 28.6953 110.6269 13.75544599696772 USA 81 1 21949U 92023A 26037.29255872 .00000296 00000+0 10237-3 0 9991 2 21949 85.0120 149.5445 0002569 105.5448 254.6028 14.32356123 90291 COSMOS 2219 1 22219U 92076A 26037.53753505 -.00000143 00000+0 -50027-4 0 9998 2 22219 71.0586 83.1949 0020430 250.0379 109.8543 14.14076896713977 SL-16 R/B 1 22220U 92076B 26037.63233303 .00000189 00000+0 11832-3 0 9998 2 22220 70.9979 253.7965 0011638 151.4528 268.1137 14.16855042717439 COSMOS 2221 1 22236U 92080A 26037.20347846 .00002860 00000+0 25202-3 0 9995 2 22236 82.5060 309.2348 0013062 303.2076 56.7893 14.96073088776082 SL-16 R/B 1 22285U 92093B 26037.50325412 -.00000167 00000+0 -61228-4 0 9990 2 22285 71.0202 69.7371 0005097 326.2555 33.8243 14.15441314708742 COSMOS 2228 1 22286U 92094A 26037.64145064 .00003054 00000+0 26197-3 0 9991 2 22286 82.5156 267.0418 0019240 49.3499 310.9392 14.97048007771418 SL-16 R/B 1 22566U 93016B 26037.11649283 -.00000041 00000+0 35935-5 0 9997 2 22566 71.0075 281.4981 0010134 357.6791 2.4283 14.15304048697701 COSMOS 2242 1 22626U 93024A 26037.14246716 .00003131 00000+0 27322-3 0 9991 2 22626 82.5194 296.8892 0017750 54.3971 305.8902 14.96417133775670 SL-16 R/B 1 22803U 93059B 26037.56228179 .00000257 00000+0 15088-3 0 9997 2 22803 70.9892 76.7711 0019490 259.1471 100.7459 14.17226597675124 ARIANE 40 R/B 1 22830U 93061H 26037.62383764 .00000281 00000+0 11890-3 0 9993 2 22830 98.4982 107.1143 0010948 22.2999 337.8659 14.32844359689657 COSMOS 2278 1 23087U 94023A 26037.62055790 -.00000182 00000+0 -70263-4 0 9994 2 23087 71.0503 240.0998 0006524 72.0562 288.1271 14.14364235640416 SL-16 R/B 1 23088U 94023B 26037.61043857 -.00000030 00000+0 91240-5 0 9995 2 23088 70.9999 136.1589 0004439 314.3089 45.7669 14.15003518641698 SL-16 R/B 1 23343U 94074B 26037.62267028 .00000684 00000+0 98468-4 0 9996 2 23343 97.7149 69.6930 0005825 334.5534 139.0002 14.79370568682656 SL-16 R/B 1 23405U 94077B 26037.03887063 -.00000025 00000+0 11620-4 0 9995 2 23405 70.9814 59.0768 0004413 238.9694 121.0996 14.15556650611759 ARIANE 40+ R/B 1 23561U 95021B 26037.18881965 .00000409 00000+0 14444-3 0 9990 2 23561 98.4562 109.0880 0005925 229.3307 154.3458 14.39748937614710 SL-16 R/B 1 23705U 95058B 26037.60965332 .00000308 00000+0 18196-3 0 9994 2 23705 71.0188 245.5068 0012406 176.6561 183.4647 14.15491182563451 SL-16 R/B 1 24298U 96051B 26037.65045073 .00000074 00000+0 66487-4 0 9999 2 24298 70.7565 240.9383 0017683 191.3503 168.7221 14.12406746517266 ORBVIEW 2 (SEASTAR) 1 24883U 97037A 26036.98197502 .00000415 00000+0 16052-3 0 9995 2 24883 98.8511 200.4637 0002832 136.7634 223.3773 14.35469739503923 SL-16 R/B 1 25400U 98043G 26036.87734015 .00000114 00000+0 66582-4 0 9993 2 25400 98.8203 350.0262 0010880 105.0710 255.1674 14.26041992434450 SL-16 R/B 1 25407U 98045B 26037.63586028 -.00000126 00000+0 -39504-4 0 9995 2 25407 71.0084 246.8795 0005286 66.0484 294.1192 14.16185303422705 ISS (ZARYA) 1 25544U 98067A 26037.53476767 .00011792 00000+0 22585-3 0 9997 2 25544 51.6316 226.3678 0011132 70.9201 289.2992 15.48439420551502 CZ-4B R/B 1 25732U 99025C 26037.63422404 .00000062 00000+0 50568-4 0 9992 2 25732 98.6688 82.6427 0038141 74.8485 38.0734 14.18259090383769 OKEAN-O 1 25860U 99039A 26037.62605892 .00001020 00000+0 14083-3 0 9998 2 25860 97.9510 97.8227 0001911 88.6389 271.5042 14.80284103429796 SL-16 R/B 1 25861U 99039B 26037.63529575 .00000815 00000+0 11015-3 0 9996 2 25861 98.0032 96.7672 0014797 3.7328 356.3992 14.81687239432267 DELTA 2 R/B 1 25876U 99041E 26037.43413125 .00002643 00000+0 46257-3 0 9993 2 25876 51.7644 66.0936 0502358 256.0893 98.3692 14.11709923358610 HELIOS 1B 1 25977U 99064A 26037.63883389 .00002415 00000+0 27242-3 0 9995 2 25977 98.1725 298.9657 0001974 118.3066 241.8349 14.87568500680645 TERRA 1 25994U 99068A 26037.63312403 .00000641 00000+0 13980-3 0 9995 2 25994 97.9659 92.2438 0000946 288.0396 191.6055 14.60980630390544 SL-16 R/B 1 26070U 00006B 26037.64318596 .00000003 00000+0 25864-4 0 9992 2 26070 71.0029 163.1154 0018428 233.8398 126.1020 14.15820745344163 TITAN 4B R/B 1 26474U 00047B 26037.61859252 .00004952 00000+0 31322-3 0 9993 2 26474 67.9894 127.8641 0036994 73.6599 286.8613 15.09303817388221 ENVISAT 1 27386U 02009A 26037.34051250 .00000204 00000+0 79936-4 0 9998 2 27386 98.3677 351.6950 0001302 90.9033 61.6939 14.39024999254664 IDEFIX & ARIANE 42P R/B 1 27422U 02021B 26037.66092261 .00000437 00000+0 18286-3 0 9993 2 27422 98.5840 336.6444 0010718 280.7661 79.2315 14.31003452239587 AQUA 1 27424U 02022A 26037.62073028 .00001535 00000+0 31665-3 0 9998 2 27424 98.4120 4.4338 0001586 54.7719 54.8969 14.61898931264193 CZ-4B R/B 1 27432U 02024C 26037.67689469 .00000056 00000+0 51554-4 0 9993 2 27432 98.8906 91.2295 0051126 110.8267 0.9214 14.14542060224852 MIDORI II (ADEOS-II) 1 27597U 02056A 26037.51131019 .00000481 00000+0 20716-3 0 9993 2 27597 98.7716 355.7851 0002158 86.6875 273.4553 14.29261081205842 H-2A R/B 1 27601U 02056E 26037.52211925 .00000462 00000+0 17686-3 0 9996 2 27601 98.3147 359.0853 0069012 254.3260 217.3077 14.33738209209641 CZ-4B R/B 1 28059U 03049C 26037.57528304 .00000712 00000+0 17481-3 0 9995 2 28059 98.6845 31.2682 0047576 327.9345 31.8958 14.54985479182078 CZ-2C R/B 1 28222U 04012C 26037.61566441 .00059196 00000+0 69888-3 0 9995 2 28222 97.7305 100.0425 0016217 67.4136 292.8835 15.60987787199425 SL-16 R/B 1 28353U 04021B 26037.13131487 .00000028 00000+0 39422-4 0 9997 2 28353 71.0004 298.7234 0002857 88.7524 271.3926 14.14589375118373 CZ-4B R/B 1 28415U 04035C 26037.62208171 .00010492 00000+0 37443-3 0 9996 2 28415 97.3548 72.2432 0034234 79.7520 280.7578 15.28487215175164 CZ-2C R/B 1 28480U 04046B 26037.63318507 .00000223 00000+0 98665-4 0 9991 2 28480 98.1996 314.5457 0138239 246.5720 112.0876 14.26980990104072 ARIANE 5 R/B 1 28499U 04049H 26037.44042405 .00001461 00000+0 16666-3 0 9999 2 28499 98.2576 204.7395 0085494 92.3626 268.7380 14.85200840141157 CZ-2D R/B 1 28738U 05024B 26037.57334486 .00044477 00000+0 60489-3 0 9992 2 28738 97.3617 51.6447 0007302 121.7841 238.4127 15.57431347134933 ALOS (DAICHI) 1 28931U 06002A 26037.45874235 .00002197 00000+0 37706-3 0 9991 2 28931 98.1170 353.5845 0002030 68.7242 291.4180 14.69705146 68897 H-2A R/B 1 28932U 06002B 26037.39087328 .00010780 00000+0 54854-3 0 9994 2 28932 98.2364 181.7523 0052984 349.0297 10.9774 15.15794470 89690 RESURS-DK 1 1 29228U 06021A 26037.19066045 .00004403 00000+0 25788-3 0 9994 2 29228 69.9351 318.4910 0004824 207.4370 152.6542 15.12557267 82764 CZ-4B R/B 1 29507U 06046C 26037.60189073 .00006858 00000+0 34976-3 0 9999 2 29507 97.5650 82.5915 0033920 17.9590 342.2832 15.16566069 55330 CZ-2C R/B 1 31114U 07010B 26037.30506568 .00000151 00000+0 88239-4 0 9999 2 31114 98.3970 152.1603 0059420 26.5247 333.8951 14.20235147975262 COSMO-SKYMED 1 1 31598U 07023A 26037.63767686 .00005618 00000+0 50228-3 0 9994 2 31598 97.8856 228.4278 0000999 74.2128 285.9203 14.96289658 10261 COSMOS 2428 1 31792U 07029A 26037.03079931 .00000362 00000+0 21986-3 0 9999 2 31792 70.9397 269.8007 0007132 312.1063 47.9451 14.12930847959620 SL-16 R/B 1 31793U 07029B 26037.66806854 .00000448 00000+0 25702-3 0 9996 2 31793 70.9731 237.5929 0001883 276.1934 147.8645 14.14829982960986 KORONAS-FOTON 1 33504U 09003A 26037.17982315 .00013767 00000+0 31636-3 0 9996 2 33504 82.4329 308.6126 0008894 273.1505 86.8724 15.42498455940884 CZ-2C R/B 1 37731U 11030B 26037.35048250 .00002022 00000+0 26066-3 0 9999 2 37731 97.8493 355.2567 0054215 92.2032 59.5348 14.81101092785451 H-2A R/B 1 38341U 12025E 26037.33888620 .00004674 00000+0 42585-3 0 9992 2 38341 98.4682 1.8972 0046072 56.1438 304.4151 14.94891789743531 SHIJIAN-16 (SJ-16) 1 39358U 13057A 26037.65563883 .00001588 00000+0 15821-3 0 9997 2 39358 74.9699 243.8352 0016915 189.7566 170.3297 14.92234247666875 SL-4 R/B 1 39679U 14021B 26036.67310653 .00019171 00000+0 43274-3 0 9991 2 39679 51.6065 133.3414 0099048 346.3080 13.5221 15.38168742651340 ALOS-2 1 39766U 14029A 26037.60775931 .00000456 00000+0 67901-4 0 9994 2 39766 97.9218 136.6525 0001450 96.4684 263.6693 14.79489847632270 YAOGAN-29 1 41038U 15069A 26037.62196043 .00000625 00000+0 83651-4 0 9995 2 41038 98.0172 65.9632 0002841 87.3050 272.8489 14.82958764551278 ASTRO-H (HITOMI) 1 41337U 16012A 26037.49731855 .00004641 00000+0 27451-3 0 9994 2 41337 30.9980 197.8027 0009850 18.9703 341.1301 15.09776162547512 HXMT (HUIYAN) 1 42758U 17034A 26037.63917065 .00008827 00000+0 44406-3 0 9991 2 42758 43.0134 189.2453 0031064 36.2529 324.0416 15.17052319477828 CZ-2C R/B 1 43521U 18054D 26037.57006066 .00324769 41408-4 80127-3 0 9994 2 43521 35.1293 157.6454 0013108 0.8200 359.2560 15.94764434423900 SAOCOM 1A 1 43641U 18076A 26037.63811399 .00000719 00000+0 96815-4 0 9997 2 43641 97.8865 226.2514 0001431 84.4624 275.6753 14.82156924396760 H-2A R/B 1 43682U 18084L 26037.55740747 .00024319 00000+0 60416-3 0 9999 2 43682 98.8758 248.3246 0026317 130.0323 230.3234 15.39977161400987 SAOCOM 1B 1 46265U 20059A 26037.60185295 .00000852 00000+0 11352-3 0 9992 2 46265 97.8861 225.3139 0001335 86.0660 274.0706 14.82162316294147 CSS (TIANHE) 1 48274U 21035A 26037.47343961 .00022506 00000+0 28124-3 0 9995 2 48274 41.4680 37.9008 0005396 13.3696 346.7284 15.59287012272733 COSMOS 2550 1 48865U 21056A 26037.54373139 .00005565 00000+0 17480-3 0 9991 2 48865 67.1450 135.1427 0008293 269.6046 90.4158 15.33839713258683 CZ-2C R/B 1 52794U 22058K 26037.56507933 .00036716 00000+0 58001-3 0 9999 2 52794 50.1885 118.1246 0042298 68.7202 291.8277 15.52055897205290 CZ-2C R/B 1 54039U 22132E 26037.52614150 .00041635 00000+0 52774-3 0 9999 2 54039 97.2960 39.9673 0017877 198.0437 162.0188 15.59160423185517 GSLV R/B 1 54149U 22138AN 26036.89486009 .00004785 00000+0 41715-3 0 9994 2 54149 87.3863 177.0016 0019306 266.8043 93.0979 14.96529532179178 XRISM 1 57800U 23137A 26037.33484544 .00008547 00000+0 49179-3 0 9995 2 57800 31.0019 126.4010 0007996 85.4035 274.7516 15.11106214133041 ACS3 1 59588U 24077B 26037.30461528 .00024506 00000+0 20265-1 0 9994 2 59588 97.2244 345.4715 0045433 175.8701 184.2846 13.88312200 89842 SZ-21 MODULE 1 66515U 25246C 26037.34113549 .00038963 00000+0 36895-3 0 9992 2 66515 41.4763 35.9805 0003013 279.0982 80.9518 15.66184885 13157